Regional Weather Roundup
Issued by NWS

Home | Current Version | Previous Version | Text Only | Print | Product List | Glossary On
Versions: 1 2 3 4 5 6 7 8 9 10 11 12 13 14 15 16 17 18 19 20 21 22 23 24 25 26 27 28 29 30 31 32 33 34 35 36 37 38 39 40 41 42 43 44 45 46 47 48 49 50
000
ASUS46 KPQR 282010
RWROR

OREGON REGIONAL WEATHER ROUNDUP
NATIONAL WEATHER SERVICE PORTLAND OR
1200 PM PST FRI NOV 28 2014

NOTE: "FAIR" INDICATES FEW OR NO CLOUDS BELOW 12,000 FEET WITH
NO SIGNIFICANT WEATHER AND/OR OBSTRUCTIONS TO VISIBILITY.

ORZ001>013-282100-
NORTHWEST OREGON


CITY           SKY/WX    TMP DP  RH WIND       PRES   REMARKS
ASTORIA        HVY RAIN  48  46  93 NW26      29.50S FOG
NEWPORT        RAIN      55  55 100 S26G35    29.60F
PORTLAND       LGT RAIN  55  51  86 S16G24    29.54F
VANCOUVER WA   LGT RAIN  54  49  83 S15G31    29.54F
SCAPPOOSE      RAIN      54  51  90 VRB3      29.52F FOG
HILLSBORO      LGT RAIN  53  51  93 S12G22    29.53F FOG
AURORA         LGT RAIN  54  51  90 S22G32    29.56F
MCMINNVILLE    LGT RAIN  55  51  86 S20G26    29.55F
SALEM          LGT RAIN  54  49  83 S21G30    29.57F
CORVALLIS      CLOUDY    55  50  82 S13       29.62F
EUGENE         LGT RAIN  53  50  89 S15       29.63F FOG
$$

ORZ021-028-282100-
SOUTHWEST OREGON


CITY           SKY/WX    TMP DP  RH WIND       PRES   REMARKS
NORTH BEND     CLOUDY    57  57 100 SW17G31   29.67S
BROOKINGS      LGT RAIN  55  55 100 S10G21    29.77F FOG
ROSEBURG       PTSUNNY   58  48  69 S9        29.69F
SEXTON SUMMIT  LGT RAIN  43  43 100 S17G35    29.72F VSB 1/4
MEDFORD        PTSUNNY   58  41  53 S16G24    29.76F
$$

ORZ014>016-041-282100-
COLUMBIA GORGE


CITY           SKY/WX    TMP DP  RH WIND       PRES   REMARKS
TROUTDALE      CLOUDY    58  50  75 VRB7      29.54F
THE DALLES     CLOUDY    55  52  89 NE3       29.51F
$$

ORZ029>031-041-044-049-050-061>064-502-503-505>511-282100-
EASTERN OREGON


CITY           SKY/WX    TMP DP  RH WIND       PRES   REMARKS
REDMOND        MOSUNNY   49  37  63 SW16G25   29.65F
BEND           MOSUNNY   46  36  66 SW20G38   29.66F
PRINEVILLE     CLOUDY    48  37  66 S6        29.68F
KLAMATH FALLS  SUNNY     43  34  70 S22G28    29.85F
LAKEVIEW       CLOUDY    45  27  49 SW15      29.91F
HERMISTON      CLOUDY    63  39  41 SW13      29.50F
PENDLETON      CLOUDY    58  37  45 S25G33    29.53F
JOHN DAY       CLOUDY    45  37  73 SW20      29.72F
MEACHAM        CLOUDY    48  36  63 VRB6      29.59F
LA GRANDE      CLOUDY    52  34  50 S10G21    29.62F
BAKER CITY     CLOUDY    49  37  63 S18G30    29.66F
BURNS          CLOUDY    45  30  55 S12       29.78F
ROME             N/A     65  -4   6 SW31G40   29.74F
ONTARIO        CLOUDY    44  42  93 W3        29.76F FOG
$$



USA.gov is the U.S. government's official web portal to all federal, state and local government web resources and services.